Location: ?p Thanh B�nh
(16.5833°N, 107.5333°E)
Time: 05:23:08
(UTC+00:00)

Cosmos 1428 Rocket - Pass Details

Date: 29 October 2020
Orbit: 947 x 989 km, 82.9° (Epoch: 27 November)

Event Time Altitude Azimuth Distance (km) Brightness Sun altitude
Rises 21:21:01 0° 183° (S) 3,679 7.6 -21.0°
Reaches altitude 10° 21:23:32 10° 183° (S) 2,728 6.9 -20.4°
Maximum altitude 21:29:48 89° 97° (E) 979 4.5 -18.9°
Drops below altitude 10° 21:36:02 10° 4° (N) 2,706 6.8 -17.4°
Sets 21:38:31 0° 4° (N) 3,647 7.5 -16.8°
